[[{"header":{"parameterUnit":"m.s-1","parameterCategory":1,"la1":30.2991,"la2":30.254,"lo1":-89.0895,"lo2":-89.0444,"dy":0.0017,"dx":0.0017,"nx":28,"ny":28,"refTime":"2025-06-08T09:00:00:Z","depth":0,"parameterNumber":2,"parameterNumberName":"U-component_of_WINDS"},"data":[0,0,0,0,0,0,0,0,0,0,0,0,0,0,0,0,0,0,0,0,0,0,0,0,0,0,0,0,0,0,0,0,0,0,0,0,0,0,0,0,0,0,0,0,0,0,0,0,0,0,0,0,0,0,0,0,0,0,2.4235,2.4235,0,2.4272,2.4272,2.4273,2.4288,2.4288,2.4288,2.4288,2.4326,2.4327,2.4328,0,0,0,0,0,0,0,0,0,0,0,0,0,2.418,2.418,2.4235,2.4235,2.4236,2.4272,2.4272,2.4273,2.4288,2.4288,2.4288,2.4288,2.4326,2.4327,2.4328,0,0,0,0,0,0,0,0,0,0,0,0,0,2.4209,2.4181,2.4235,2.4248,2.4249,2.4272,2.4272,2.4273,2.4288,2.4288,2.4288,2.4288,2.4325,2.4327,2.4328,2.434,0,0,2.4333,2.4334,0,0,0,0,0,0,0,0,2.4207,2.4211,2.4246,2.4247,2.4249,2.4275,2.4267,2.4296,2.4288,2.4274,2.4288,2.4288,2.4309,2.4312,2.4319,2.4342,2.4344,2.4333,2.4334,2.4335,2.4336,0,0,0,0,0,0,0,2.4205,2.4209,2.425,2.4246,2.4248,2.4252,2.4257,2.4272,2.4292,2.4275,2.4276,2.428,2.431,2.4318,2.432,2.4344,2.4333,2.4335,2.4336,2.4336,2.4381,2.4381,0,0,0,0,0,0,2.4201,2.4207,2.4248,2.4251,2.4227,2.4254,2.4258,2.4267,2.4291,2.4295,2.428,2.4281,2.4315,2.4318,2.4322,2.4339,2.4335,2.4337,2.4337,2.4381,2.4381,2.4382,0,0,0,0,0,0,2.4199,2.4204,2.4247,2.4229,2.4235,2.4255,2.4264,2.4268,2.4275,2.4295,2.4299,2.4284,2.4315,2.4319,2.4336,2.434,2.4337,2.4339,2.4381,2.4381,2.4381,2.4372,0,0,0,0,0,0,2.4198,2.4204,2.4208,2.4229,2.4236,2.426,2.4265,2.4269,2.4278,2.4279,2.43,2.4304,2.4315,2.4334,2.4338,2.4342,2.434,2.438,2.4381,2.4381,2.4372,2.4372,2.4372,0,0,0,0,0,2.4196,2.4203,2.4208,2.4213,2.4242,2.426,2.4264,2.4277,2.4278,2.4283,2.4297,2.4303,2.4339,2.4335,2.434,2.4345,2.438,2.4381,2.4381,2.4372,2.4372,2.4372,0,0,0,0,0,0,2.4181,2.4206,2.4212,2.4226,2.4241,2.4263,2.4269,2.4276,2.4291,2.4291,2.4307,2.4312,2.4328,2.4338,2.4333,2.4359,2.436,2.4362,2.4352,2.4352,2.4352,2.4349,2.4341,0,0,0,0,0,2.418,2.4192,2.4214,2.4225,2.4232,2.4249,2.4258,2.4267,2.4283,2.4289,2.4303,2.4319,2.4334,2.4344,2.4358,2.4374,2.438,2.438,2.438,2.438,2.4381,2.4392,2.4393,2.4383,2.4383,2.4383,0,0,2.4176,2.4192,2.4199,2.4222,2.4235,2.4248,2.4254,2.4268,2.4278,2.4291,2.4308,2.4319,2.4338,2.4355,2.4363,2.4364,2.4385,2.438,2.438,2.4381,2.4392,2.4393,2.4394,2.4384,2.4384,2.4383,0,0,2.4178,2.419,2.4202,2.4214,2.4234,2.4246,2.4248,2.427,2.4278,2.4295,2.4306,2.4319,2.4344,2.4357,2.4367,2.4376,2.4383,2.4381,2.438,2.4391,2.4392,2.4392,2.4397,2.4398,2.4382,2.4382,2.4382,0,2.4171,2.4192,2.4206,2.422,2.4231,2.4244,2.4256,2.4268,2.4291,2.4298,2.4299,2.4332,2.4346,2.4366,2.4369,2.4376,2.4381,2.4378,2.439,2.4391,2.4392,2.4397,2.4398,2.4381,2.4381,2.4381,2.4381,0,2.4184,2.4198,2.4205,2.4228,2.4239,2.4252,2.4269,2.4279,2.4288,2.43,2.4319,2.4335,2.4355,2.436,2.4368,2.4383,2.4383,2.4387,2.4389,2.4392,2.4397,2.4399,2.4381,2.4381,2.4381,2.4381,0,0,2.4175,2.4208,2.421,2.4221,2.4245,2.4256,2.4271,2.429,2.4299,2.4315,2.4328,2.435,2.4354,2.4366,2.4376,2.4385,2.4393,2.4388,2.4389,2.4389,2.4412,2.4409,2.4411,2.4398,2.4398,2.4399,2.4411,0,2.4181,2.4206,2.4221,2.4241,2.4255,2.4269,2.4282,2.4298,2.431,2.4325,2.4338,2.4354,2.4358,2.4365,2.4375,2.439,2.4398,2.4389,2.4411,2.4412,2.4406,2.4413,2.441,2.442,2.4412,2.4413,2.4413,0,2.4189,2.4206,2.4228,2.4252,2.4258,2.4269,2.4289,2.4303,2.4322,2.4331,2.4344,2.4355,2.4372,2.4372,2.4396,2.439,2.44,2.4409,2.441,2.4413,2.4412,2.4417,2.4424,2.4425,2.4415,2.4415,2.4415,0,2.4183,2.4211,2.4228,2.4237,2.4265,2.4273,2.4284,2.4304,2.4315,2.4333,2.4341,2.436,2.4371,2.4386,2.4402,2.44,2.4425,2.4426,2.4433,2.4433,2.4437,2.4437,2.4447,2.4443,2.4443,2.4443,2.4443,0,2.4187,2.42,2.4225,2.4236,2.4252,2.4269,2.4284,2.4297,2.4315,2.4329,2.4342,2.4355,2.4375,2.439,2.4403,2.4422,2.4426,2.4434,2.4438,2.4434,2.4433,2.444,2.444,2.4443,2.4443,2.4443,2.4443,0,2.4181,2.4199,2.4219,2.4244,2.4251,2.4261,2.4283,2.4295,2.4309,2.4326,2.4332,2.4353,2.4373,2.439,2.4416,2.4425,2.4444,2.4448,2.4438,2.444,2.4446,2.4445,2.4461,2.4465,2.4458,2.4458,2.4458,0,2.4183,2.4194,2.4221,2.4231,2.4243,2.426,2.4272,2.429,2.4303,2.4327,2.4336,2.4356,2.4374,2.4405,2.4423,2.4443,2.4448,2.4452,2.4451,2.4447,2.4449,2.4449,2.4451,2.4452,2.4452,2.4452,2.4452,0,2.4185,2.4194,2.421,2.4231,2.4246,2.4263,2.428,2.4288,2.431,2.4323,2.4344,2.4358,2.4385,2.4406,2.4428,2.4441,2.4451,2.4453,2.4456,2.4451,2.4446,2.445,2.4438,2.4452,2.4452,2.4452,2.4452,2.4452,2.4184,2.4194,2.4216,2.4235,2.425,2.4267,2.428,2.4296,2.4313,2.4337,2.4347,2.4368,2.4389,2.4421,2.4434,2.4452,2.4453,2.4457,2.4458,2.4459,2.4459,2.4443,2.4456,2.4456,2.4456,2.4456,2.4456,0,2.4187,2.4202,2.4219,2.4244,2.426,2.4268,2.4288,2.4301,2.4319,2.4338,2.4356,2.4381,2.4402,2.4422,2.4445,2.4455,2.446,2.446,2.446,2.4463,2.4456,2.4451,2.4456,2.4456,2.4456,2.4456,2.4456,2.4456,2.419,2.4209,2.4221,2.4249,2.4264,2.4285,2.4296,2.4312,2.4328,2.4355,2.4373,2.4386,2.4407,2.4431,2.4451,2.4457,2.4465,2.4464,2.4471,2.4463,2.4463,2.4463,2.4459,2.4465,2.4465,2.4477,2.4477,2.4477]},{"header":{"parameterUnit":"m.s-1","parameterCategory":1,"la1":30.2991,"la2":30.254,"lo1":-89.0895,"lo2":-89.0444,"dy":0.0017,"dx":0.0017,"nx":28,"ny":28,"refTime":"2025-06-08T09:00:00:Z","depth":0,"parameterNumber":3,"parameterNumberName":"V-component_of_WINDS"},"data":[0,0,0,0,0,0,0,0,0,0,0,0,0,0,0,0,0,0,0,0,0,0,0,0,0,0,0,0,0,0,0,0,0,0,0,0,0,0,0,0,0,0,0,0,0,0,0,0,0,0,0,0,0,0,0,0,0,0,4.5132,4.5134,0,4.5272,4.5273,4.5275,4.5321,4.532,4.532,4.5319,4.5456,4.546,4.5464,0,0,0,0,0,0,0,0,0,0,0,0,0,4.4902,4.4906,4.5132,4.5134,4.5136,4.5271,4.5273,4.5275,4.5321,4.532,4.532,4.5319,4.5454,4.5459,4.5464,0,0,0,0,0,0,0,0,0,0,0,0,0,4.5017,4.4907,4.5132,4.5175,4.518,4.5271,4.5273,4.5276,4.5321,4.532,4.5319,4.5319,4.5453,4.5459,4.5465,4.5521,0,0,4.5484,4.5487,0,0,0,0,0,0,0,0,4.5011,4.5026,4.5167,4.5172,4.5178,4.5278,4.5242,4.5358,4.5321,4.5267,4.5319,4.5318,4.5397,4.5408,4.5435,4.5527,4.5533,4.5485,4.5488,4.5491,4.5493,0,0,0,0,0,0,0,4.5003,4.502,4.5187,4.5169,4.5176,4.5186,4.5202,4.5264,4.5335,4.5272,4.5276,4.5292,4.54,4.5429,4.5439,4.5535,4.5484,4.549,4.5494,4.5496,4.5681,4.5682,0,0,0,0,0,0,4.4988,4.5013,4.5183,4.5191,4.5091,4.5191,4.5208,4.5247,4.5335,4.5347,4.5293,4.5294,4.5419,4.5432,4.5444,4.5517,4.5491,4.5497,4.55,4.568,4.5682,4.5683,0,0,0,0,0,0,4.4983,4.5003,4.5177,4.5103,4.5126,4.5196,4.5239,4.525,4.528,4.535,4.5362,4.531,4.5419,4.5435,4.5502,4.5522,4.55,4.5505,4.5679,4.5681,4.5682,4.5661,0,0,0,0,0,0,4.4976,4.5001,4.5024,4.5104,4.513,4.5234,4.524,4.5253,4.5291,4.5294,4.537,4.5382,4.5419,4.5493,4.5508,4.553,4.551,4.5677,4.568,4.5682,4.5661,4.5662,4.5664,0,0,0,0,0,4.4968,4.501,4.5025,4.5045,4.516,4.5235,4.525,4.5295,4.5292,4.5316,4.5361,4.5379,4.5517,4.5499,4.5517,4.5541,4.5676,4.5679,4.5682,4.566,4.5662,4.5664,0,0,0,0,0,0,4.4928,4.5022,4.5038,4.5108,4.5164,4.5243,4.5273,4.5295,4.5351,4.5351,4.5402,4.5419,4.5482,4.5518,4.5496,4.5601,4.5598,4.5604,4.5575,4.5577,4.5579,4.5569,4.5515,0,0,0,0,0,4.4928,4.4983,4.5061,4.5115,4.5142,4.5203,4.5237,4.5267,4.5326,4.5349,4.5399,4.5454,4.551,4.5546,4.5601,4.5666,4.5684,4.5692,4.5693,4.5694,4.5699,4.5738,4.5742,4.5692,4.5691,4.5691,0,0,4.4927,4.4985,4.5016,4.5108,4.5155,4.521,4.5222,4.5279,4.532,4.5357,4.5424,4.5463,4.5527,4.5595,4.5626,4.5627,4.5717,4.5697,4.5697,4.5702,4.5741,4.5745,4.575,4.5693,4.5693,4.5693,0,0,4.4954,4.5003,4.5055,4.5102,4.5174,4.5214,4.5226,4.5303,4.5331,4.54,4.543,4.5478,4.5573,4.5619,4.5654,4.5701,4.572,4.5717,4.5725,4.5762,4.5766,4.577,4.5787,4.5793,4.5722,4.5722,4.5722,0,4.4944,4.5029,4.5078,4.5134,4.5174,4.5213,4.5266,4.5308,4.5393,4.5419,4.5418,4.554,4.5586,4.5665,4.5677,4.5704,4.572,4.5709,4.5762,4.5766,4.577,4.5788,4.5794,4.5721,4.5721,4.5721,4.5721,0,4.5013,4.5072,4.5104,4.5189,4.5232,4.5286,4.5342,4.538,4.5406,4.5447,4.5517,4.5574,4.5642,4.5663,4.5688,4.5746,4.5744,4.5752,4.575,4.5774,4.5791,4.5798,4.572,4.572,4.572,4.572,0,0,4.5018,4.5131,4.5142,4.5181,4.5264,4.5309,4.5365,4.5434,4.5466,4.5523,4.5571,4.5652,4.5661,4.5701,4.5731,4.5764,4.5799,4.5768,4.5771,4.5773,4.5868,4.5862,4.5869,4.5812,4.5814,4.5815,4.5863,0,4.5056,4.516,4.5206,4.5288,4.5343,4.5382,4.543,4.5486,4.5525,4.5577,4.5619,4.5676,4.5683,4.5708,4.5742,4.5787,4.5819,4.5785,4.5857,4.5859,4.584,4.5878,4.5872,4.5914,4.587,4.5871,4.5872,0,4.5114,4.5175,4.5263,4.5342,4.5367,4.5409,4.5478,4.5527,4.559,4.5617,4.5663,4.5693,4.5752,4.5746,4.5828,4.5804,4.5836,4.5863,4.5866,4.5875,4.5867,4.5888,4.5929,4.5935,4.5883,4.5882,4.5881,0,4.511,4.5214,4.5281,4.5313,4.5406,4.5435,4.5475,4.5538,4.5577,4.5636,4.5662,4.5726,4.5762,4.581,4.5856,4.5847,4.5935,4.5932,4.5958,4.5957,4.5975,4.5973,4.6022,4.5994,4.5994,4.5994,4.5994,0,4.5149,4.5201,4.5281,4.5322,4.5382,4.5435,4.5492,4.5534,4.5591,4.564,4.5676,4.5721,4.5779,4.5832,4.5868,4.5931,4.5946,4.5969,4.5978,4.5966,4.5964,4.5988,4.5987,4.5995,4.5995,4.5995,4.5994,0,4.5154,4.521,4.5285,4.5368,4.539,4.5431,4.5501,4.5542,4.5584,4.5646,4.5663,4.5728,4.5792,4.5843,4.5925,4.595,4.6017,4.6026,4.5996,4.6001,4.6025,4.6022,4.6091,4.6104,4.6066,4.6067,4.6067,0,4.5175,4.5217,4.5306,4.5343,4.5383,4.5441,4.5482,4.5536,4.5577,4.5654,4.5686,4.5753,4.5809,4.5909,4.5963,4.6026,4.6038,4.6058,4.6048,4.6036,4.604,4.6038,4.6043,4.6059,4.6059,4.606,4.606,0,4.5207,4.5234,4.5293,4.5363,4.5412,4.5468,4.5526,4.5553,4.5617,4.5662,4.5729,4.5773,4.5859,4.5925,4.5995,4.6034,4.6058,4.6063,4.6072,4.6061,4.6043,4.6054,4.6,4.6061,4.6061,4.6061,4.6061,4.6061,4.5222,4.5262,4.5332,4.5397,4.5447,4.55,4.5543,4.5592,4.565,4.5726,4.5753,4.5822,4.5886,4.5983,4.6022,4.6077,4.6079,4.6092,4.6096,4.6098,4.6098,4.6034,4.6089,4.6089,4.6089,4.6089,4.6089,0,4.5257,4.5305,4.5364,4.5445,4.5497,4.5517,4.5582,4.5624,4.5685,4.5743,4.5799,4.5877,4.5942,4.6002,4.6069,4.6101,4.6114,4.6117,4.6115,4.6124,4.6091,4.6077,4.6106,4.6106,4.6106,4.6106,4.6106,4.6106,4.5282,4.5351,4.5386,4.548,4.5527,4.5597,4.5632,4.5682,4.5729,4.5815,4.587,4.591,4.5969,4.6042,4.6102,4.6118,4.6141,4.6142,4.6161,4.6129,4.6126,4.6124,4.6111,4.6146,4.6146,4.6189,4.619,4.619]}]]